| time (UTC) | temp F | wind direction | speed knots | gust knots | rain 1hr in | rain 24hr in | rain mn in | humidity % | barometer mb |
| 20260507075701 | 52 | 155 | 1.7 | 6.1 | 0.00 | 0.00 | 0.00 | 30 | 1015.8 |
| 20260507073926 | 51 | 170 | 1.7 | 6.1 | 0.00 | 0.00 | 0.00 | 31 | 1015.9 |
| 20260507072221 | 50 | 129 | 1.7 | 5.2 | 0.00 | 0.00 | 0.00 | 33 | 1016.0 |
| 20260507070331 | 49 | 109 | 1.7 | 5.2 | 0.00 | 0.00 | 0.00 | 33 | 1016.0 |
| 20260507064423 | 48 | 151 | 1.7 | 7.0 | 0.00 | 0.00 | 0.00 | 34 | 1016.1 |
| 20260507062747 | 48 | 110 | 2.6 | 7.0 | 0.00 | 0.00 | 0.00 | 35 | 1015.9 |
| 20260507060806 | 46 | 136 | 1.7 | 7.0 | 0.00 | 0.00 | 0.00 | 38 | 1015.8 |
| 20260507054931 | 46 | 120 | 1.7 | 6.1 | 0.00 | 0.00 | 0.00 | 37 | 1015.8 |
| 20260507053306 | 45 | 128 | 1.7 | 7.8 | 0.00 | 0.00 | 0.00 | 39 | 1015.7 |
| 20260507045549 | 0 | 104 | 1.7 | 5.2 | 0.00 | 0.00 | 0.00 | 41 | 1015.6 |
| 20260507045547 | 43 | 104 | 1.7 | 5.2 | 0.00 | 0.00 | 0.00 | 41 | 1015.6 |
| 20260506192811 | 39 | 122 | 2.6 | 0.0 | 0.00 | 0.00 | 0.00 | 71 | 1014.4 |
| 20260506192806 | 39 | 122 | 2.6 | 4.3 | 0.00 | 0.00 | 0.00 | 71 | 1014.4 |
| 20260506190811 | 40 | 120 | 2.6 | 5.2 | 0.00 | 0.00 | 0.00 | 68 | 1014.4 |
| 20260506183146 | 43 | 130 | 1.7 | 4.3 | 0.00 | 0.00 | 0.00 | 61 | 1014.2 |
| 20260506181251 | 45 | 177 | 2.6 | 5.2 | 0.00 | 0.00 | 0.00 | 57 | 1014.2 |
| 20260506175532 | 46 | 191 | 2.6 | 7.0 | 0.00 | 0.00 | 0.00 | 51 | 1014.2 |
| 20260506175529 | 46 | 191 | 2.6 | 7.0 | 0.00 | 0.00 | 0.00 | 51 | 1014.2 |
| 20260506173906 | 47 | 195 | 2.6 | 5.2 | 0.00 | 0.00 | 0.00 | 47 | 1014.2 |
| 20260506172201 | 48 | 187 | 2.6 | 5.2 | 0.00 | 0.00 | 0.00 | 44 | 1014.2 |
| 20260506170316 | 49 | 203 | 2.6 | 5.2 | 0.00 | 0.00 | 0.00 | 41 | 1014.1 |
| 20260506164612 | 0 | 210 | 3.5 | 3.5 | 0.00 | 0.00 | 0.00 | 31 | |
| 20260506162951 | 50 | 224 | 3.5 | 8.7 | 0.00 | 0.00 | 0.00 | 39 | 1013.9 |
| 20260506161041 | 50 | 228 | 2.6 | 6.1 | 0.00 | 0.00 | 0.00 | 37 | 1013.9 |
| 20260506155117 | 50 | 223 | 3.5 | 7.0 | 0.00 | 0.00 | 0.00 | 38 | 1013.9 |
| 20260506153506 | 50 | 238 | 3.5 | 9.6 | 0.00 | 0.00 | 0.00 | 39 | 1014.0 |
| 20260506151701 | 49 | 229 | 3.5 | 8.7 | 0.00 | 0.00 | 0.00 | 43 | 1014.0 |
| 20260506145951 | 49 | 228 | 5.2 | 13.0 | 0.00 | 0.00 | 0.00 | 41 | 1014.1 |
| 20260506144011 | 48 | 200 | 4.3 | 12.2 | 0.00 | 0.00 | 0.00 | 45 | 1014.2 |
| 20260506142306 | 49 | 212 | 5.2 | 11.3 | 0.00 | 0.00 | 0.00 | 44 | 1014.4 |
| 20260506140602 | 49 | 206 | 3.5 | 8.7 | 0.00 | 0.00 | 0.00 | 44 | 1014.3 |
| 20260506134732 | 49 | 208 | 4.3 | 8.7 | 0.00 | 0.00 | 0.00 | 44 | 1014.2 |
| 20260506133041 | 49 | 208 | 5.2 | 11.3 | 0.00 | 0.00 | 0.00 | 44 | 1014.3 |
| 20260506131445 | 48 | 211 | 7.0 | 13.0 | 0.00 | 0.00 | 0.00 | 46 | 1014.3 |
| 20260506125806 | 48 | 217 | 7.0 | 14.8 | 0.00 | 0.00 | 0.00 | 45 | 1014.3 |
| 20260506123848 | 46 | 211 | 7.8 | 16.5 | 0.00 | 0.00 | 0.00 | 1014.1 | |
| 20260506122111 | 48 | 230 | 6.1 | 13.9 | 0.00 | 0.00 | 0.00 | 42 | 1014.4 |
| 20260506120226 | 48 | 198 | 6.1 | 16.5 | 0.00 | 0.00 | 0.00 | 42 | 1014.4 |
| 20260506114531 | 49 | 221 | 6.1 | 14.8 | 0.00 | 0.00 | 0.00 | 47 | 1014.4 |
| 20260506112912 | 48 | 232 | 7.8 | 18.2 | 0.00 | 0.00 | 0.00 | 48 | |
| 20260506112909 | 48 | 232 | 7.8 | 18.2 | 0.00 | 0.00 | 0.00 | 48 | 1014.5 |
| 20260506111107 | 48 | 221 | 5.2 | 15.6 | 0.00 | 0.00 | 0.00 | 49 | 1014.4 |
| 20260506105246 | 46 | 211 | 6.1 | 14.8 | 0.00 | 0.00 | 0.00 | 52 | 1014.5 |
| 20260506103546 | 47 | 207 | 6.1 | 15.6 | 0.00 | 0.00 | 0.00 | 48 | 1014.4 |
| 20260506101856 | 48 | 188 | 5.2 | 12.2 | 0.00 | 0.00 | 0.00 | 52 | 1014.3 |
| 20260506100032 | 48 | 202 | 7.0 | 13.9 | 0.00 | 0.00 | 0.00 | 50 | 1014.1 |
| 20260506094431 | 49 | 208 | 6.1 | 11.3 | 0.00 | 0.00 | 0.00 | 46 | 1013.9 |
| 20260506092516 | 49 | 190 | 3.5 | 12.2 | 0.00 | 0.00 | 0.00 | 45 | 1013.7 |
| 20260506090747 | 50 | 179 | 4.3 | 10.4 | 0.00 | 0.00 | 0.00 | 1013.5 | |
| 20260506085046 | 49 | 211 | 4.3 | 9.6 | 0.00 | 0.00 | 0.00 | 38 | 1013.5 |
| 20260506083446 | 48 | 235 | 4.3 | 10.4 | 0.00 | 0.00 | 0.00 | 45 | 1013.4 |
| 20260506081807 | 48 | 187 | 4.3 | 12.2 | 0.00 | 0.00 | 0.00 | 43 | 1013.5 |